Retour au catalogue

STARLINK-31285

ActifCommunicationsVLEO
NORAD 59244·PAYLOAD·🇺🇸 United States

Lancé Mar 16, 2024 depuis Cape Canaveral Space Force Station

Loading…

Prochains Passages (prochaines 24 heures)

TLE

FraisSource: CelesTrak SupGP

Époque: Sep 14, 2026, 20:53 UTC

1 59244C 24049P   26257.87062500 -.00024521  00000+0 -88823-3 0  2577
2 59244  42.9996 154.8568 0001266 262.1859  44.6118 15.27588274    14

Suivez STARLINK-31285 en temps réel avec AllMySat

Download on the App Store